Bryce Canyon, UT

2:09 PM MST on December 08, 2019 (GMT -0700)
Bryce Canyon

Weather History for KBCE - October, 2019

Change the Weather History Date:

Sunday, October 27, 2019

  Actual Average Record
Temperature  
Mean Temperature 34 °F -  
Max Temperature 48 °F 53 °F 66 °F (1968)
Min Temperature 19 °F 24 °F 9 °F (1970)
Degree Days  
Heating Degree Days 32    
Moisture  
Dew Point 14 °F    
Average Humidity 46    
Maximum Humidity 66    
Minimum Humidity 28    
Precipitation  
Precipitation 0.00 in - - ()
Sea Level Pressure  
Sea Level Pressure 29.68 in    
Wind  
Wind Speed 14 mph (NW)    
Max Wind Speed 21 mph    
Max Gust Speed 26 mph    
Visibility 10 miles    
Events      
Averages and records for this station are not official NWS values.
T = Trace of Precipitation, MM = Missing Value Source: NWS Daily Summary

Daily Weather History Graph

Daily Weather History Graph

Search for Another Location

Airport or City:

Astronomy

Oct. 27, 2019 Rise Set
Actual Time 7:48 AM MDT 6:35 PM MDT
Civil Twilight 7:21 AM MDT 7:02 PM MDT
Nautical Twilight 6:50 AM MDT 7:33 PM MDT
Astronomical Twilight 6:20 AM MDT 8:03 PM MDT
Moon 7:03 AM MDT (10/27) 6:46 PM MDT (10/27)
Length of Visible Light 11h 41m
Length of Day
10h 47m
Waning Crescent, 0% of the Moon is Illuminated
Oct 27
Waning Crescent
Oct 27
New
Nov 4
First Quarter
Nov 12
Full
Nov 19
Last Quarter

Hourly Weather History & Observations

Time (MDT) Temp. Windchill Dew Point Humidity Pressure Visibility Wind Dir Wind Speed Gust Speed Precip Events Conditions
12:53 AM 48.0 °F - 17.1 °F 29% 29.52 in 10.0 mi WSW 17.3 mph 26.5 mph N/A   Clear
1:53 AM 46.0 °F 40.2 °F 16.0 °F 30% 29.51 in 10.0 mi SW 12.7 mph - N/A   Clear
2:53 AM 46.9 °F - 15.1 °F 28% 29.49 in 10.0 mi WSW 13.8 mph 24.2 mph N/A   Clear
3:53 AM 46.0 °F 39.6 °F 16.0 °F 30% 29.47 in 10.0 mi WSW 15.0 mph 23.0 mph N/A   Clear
4:53 AM 39.9 °F 35.8 °F 16.0 °F 38% 29.49 in 10.0 mi North 5.8 mph - N/A   Clear
5:53 AM 39.0 °F 36.8 °F 16.0 °F 39% 29.51 in 10.0 mi Variable 3.5 mph - N/A   Clear
7:53 AM 25.0 °F 14.8 °F 14.0 °F 63% 29.66 in 10.0 mi NE 10.4 mph - N/A   Clear
8:53 AM 28.9 °F 21.1 °F 14.0 °F 54% 29.68 in 10.0 mi North 8.1 mph - N/A   Clear
9:53 AM 33.1 °F 25.5 °F 14.0 °F 46% 29.70 in 10.0 mi North 9.2 mph - N/A   Clear
10:53 AM 37.0 °F 27.4 °F 14.0 °F 39% 29.66 in 10.0 mi NNE 17.3 mph - N/A   Clear
11:53 AM 41.0 °F 33.9 °F 12.9 °F 32% 29.64 in 10.0 mi WNW 12.7 mph - N/A   Clear
12:53 PM 43.0 °F 35.4 °F 12.0 °F 28% 29.63 in 10.0 mi WNW 16.1 mph 23.0 mph N/A   Clear
1:53 PM 42.1 °F 34.2 °F 15.1 °F 34% 29.65 in 10.0 mi NW 16.1 mph 25.3 mph N/A   Clear
2:53 PM 41.0 °F 32.2 °F 17.1 °F 38% 29.65 in 10.0 mi NW 18.4 mph - N/A   Overcast
3:53 PM 36.0 °F 25.0 °F 17.1 °F 46% 29.67 in 10.0 mi WNW 20.7 mph - N/A   Mostly Cloudy
4:53 PM 32.0 °F 20.8 °F 16.0 °F 52% 29.73 in 10.0 mi WNW 17.3 mph 25.3 mph N/A   Overcast
5:53 PM 28.0 °F 14.9 °F 15.1 °F 58% 29.76 in 10.0 mi WNW 19.6 mph 26.5 mph N/A   Partly Cloudy
6:53 PM 25.0 °F 11.3 °F 15.1 °F 66% 29.85 in 10.0 mi NW 18.4 mph 25.3 mph N/A   Clear
7:53 PM 23.0 °F 9.6 °F 10.9 °F 60% 29.90 in 10.0 mi WNW 16.1 mph 25.3 mph N/A   Partly Cloudy
8:53 PM 21.9 °F 9.8 °F 9.0 °F 58% 29.90 in 10.0 mi NW 12.7 mph - N/A   Overcast
9:53 PM 19.9 °F 6.2 °F 9.0 °F 62% 29.88 in 10.0 mi NNW 15.0 mph - N/A   Clear
10:53 PM 19.0 °F 6.1 °F 9.0 °F 65% 29.87 in 10.0 mi NNW 12.7 mph - N/A   Clear
11:53 PM 19.9 °F 8.6 °F 9.0 °F 62% 29.86 in 10.0 mi NW 10.4 mph 20.7 mph N/A   Overcast